| time (UTC) | temp F | wind direction | speed knots | gust knots | rain 1hr in | rain 24hr in | rain mn in | humidity % | barometer mb |
| 20260504081852 | 52 | 216 | 2.6 | 2.6 | 0.00 | 0.00 | 0.00 | 51 | 961.0 |
| 20260504081349 | 53 | 186 | 5.2 | 5.2 | 0.00 | 0.00 | 0.00 | 51 | 961.0 |
| 20260504080844 | 53 | 180 | 2.6 | 2.6 | 0.00 | 0.00 | 0.00 | 51 | 961.0 |
| 20260504080342 | 53 | 204 | 1.7 | 1.7 | 0.00 | 0.00 | 0.00 | 51 | 961.0 |
| 20260504070309 | 54 | 227 | 1.7 | 1.7 | 0.00 | 0.00 | 0.00 | 47 | 962.0 |
| 20260504060230 | 54 | 180 | 0.0 | 0.0 | 0.00 | 0.00 | 0.00 | 48 | 963.0 |
| 20260504050657 | 56 | 217 | 0.0 | 0.0 | 0.00 | 0.00 | 0.00 | 45 | 963.3 |
| 20260504050154 | 56 | 222 | 1.7 | 1.7 | 0.00 | 0.00 | 0.00 | 43 | 963.7 |
| 20260504045652 | 56 | 239 | 3.5 | 3.5 | 0.00 | 0.00 | 0.00 | 42 | 963.7 |
| 20260504045151 | 56 | 233 | 1.7 | 1.7 | 0.00 | 0.00 | 0.00 | 41 | 964.1 |
| 20260504044649 | 56 | 210 | 1.7 | 1.7 | 0.00 | 0.00 | 0.00 | 43 | 964.1 |
| 20260504044146 | 56 | 204 | 1.7 | 1.7 | 0.00 | 0.00 | 0.00 | 43 | 964.1 |
| 20260504043643 | 56 | 216 | 2.6 | 2.6 | 0.00 | 0.00 | 0.00 | 43 | 964.1 |
| 20260504043140 | 56 | 206 | 1.7 | 1.7 | 0.00 | 0.00 | 0.00 | 44 | 964.1 |
| 20260504042638 | 56 | 198 | 0.0 | 0.0 | 0.00 | 0.00 | 0.00 | 43 | 964.1 |
| 20260504042134 | 56 | 192 | 1.7 | 1.7 | 0.00 | 0.00 | 0.00 | 44 | 964.1 |
| 20260504041630 | 56 | 192 | 0.0 | 0.0 | 0.00 | 0.00 | 0.00 | 43 | 964.4 |
| 20260504041126 | 56 | 192 | 1.7 | 1.7 | 0.00 | 0.00 | 0.00 | 42 | 964.4 |
| 20260504040624 | 56 | 192 | 1.7 | 1.7 | 0.00 | 0.00 | 0.00 | 43 | 964.4 |
| 20260504040121 | 56 | 192 | 1.7 | 1.7 | 0.00 | 0.00 | 0.00 | 44 | 964.8 |
| 20260504035617 | 56 | 192 | 1.7 | 1.7 | 0.00 | 0.00 | 0.00 | 43 | 964.8 |
| 20260504035114 | 56 | 192 | 0.0 | 0.0 | 0.00 | 0.00 | 0.00 | 43 | 964.8 |
| 20260504034612 | 56 | 192 | 0.0 | 0.0 | 0.00 | 0.00 | 0.00 | 44 | 964.8 |
| 20260504034108 | 56 | 192 | 0.0 | 0.0 | 0.00 | 0.00 | 0.00 | 42 | 964.8 |
| 20260504033606 | 56 | 192 | 0.0 | 0.0 | 0.00 | 0.00 | 0.00 | 43 | 964.8 |
| 20260504033103 | 57 | 192 | 0.0 | 0.0 | 0.00 | 0.00 | 0.00 | 43 | 964.8 |
| 20260504032600 | 57 | 192 | 0.0 | 0.0 | 0.00 | 0.00 | 0.00 | 41 | 965.1 |
| 20260504032057 | 57 | 192 | 1.7 | 1.7 | 0.00 | 0.00 | 0.00 | 41 | 965.1 |
| 20260504031554 | 58 | 192 | 0.0 | 0.0 | 0.00 | 0.00 | 0.00 | 40 | 965.1 |
| 20260504031050 | 58 | 186 | 0.0 | 0.0 | 0.00 | 0.00 | 0.00 | 40 | 965.1 |
| 20260504030548 | 58 | 186 | 1.7 | 1.7 | 0.00 | 0.00 | 0.00 | 40 | 965.1 |
| 20260504030043 | 58 | 186 | 0.0 | 0.0 | 0.00 | 0.00 | 0.00 | 42 | 965.1 |
| 20260504025541 | 57 | 186 | 0.0 | 0.0 | 0.00 | 0.00 | 0.00 | 43 | 965.1 |
| 20260504025037 | 57 | 186 | 0.0 | 0.0 | 0.00 | 0.00 | 0.00 | 42 | 965.1 |
| 20260504024535 | 58 | 186 | 0.0 | 0.0 | 0.00 | 0.00 | 0.00 | 42 | 965.1 |
| 20260504024031 | 58 | 186 | 0.0 | 0.0 | 0.00 | 0.00 | 0.00 | 41 | 965.1 |
| 20260504023528 | 58 | 186 | 0.0 | 0.0 | 0.00 | 0.00 | 0.00 | 40 | 964.8 |
| 20260504023024 | 59 | 186 | 0.0 | 0.0 | 0.00 | 0.00 | 0.00 | 41 | 965.1 |
| 20260504022520 | 60 | 186 | 0.0 | 0.0 | 0.00 | 0.00 | 0.00 | 39 | 965.1 |
| 20260504022017 | 60 | 186 | 0.0 | 0.0 | 0.00 | 0.00 | 0.00 | 39 | 964.8 |
| 20260504021514 | 60 | 186 | 0.0 | 0.0 | 0.00 | 0.00 | 0.00 | 41 | 964.8 |
| 20260504021011 | 60 | 186 | 0.0 | 0.0 | 0.00 | 0.00 | 0.00 | 39 | 965.1 |
| 20260504020508 | 60 | 258 | 0.0 | 0.0 | 0.00 | 0.00 | 0.00 | 40 | 964.8 |
| 20260504020004 | 60 | 258 | 0.0 | 0.0 | 0.00 | 0.00 | 0.00 | 38 | 964.8 |
| 20260504015500 | 61 | 258 | 0.0 | 0.0 | 0.00 | 0.00 | 0.00 | 38 | 964.8 |
| 20260504014956 | 61 | 258 | 0.0 | 0.0 | 0.00 | 0.00 | 0.00 | 37 | 965.1 |
| 20260504014453 | 62 | 258 | 0.0 | 0.0 | 0.00 | 0.00 | 0.00 | 36 | 965.1 |
| 20260504013950 | 62 | 258 | 0.0 | 0.0 | 0.00 | 0.00 | 0.00 | 35 | 965.1 |
| 20260504013449 | 62 | 258 | 0.0 | 0.0 | 0.00 | 0.00 | 0.00 | 36 | 964.8 |
| 20260504012944 | 63 | 258 | 0.0 | 0.0 | 0.00 | 0.00 | 0.00 | 34 | 964.8 |
| 20260504012442 | 64 | 258 | 0.0 | 0.0 | 0.00 | 0.00 | 0.00 | 33 | 964.8 |
| 20260504011940 | 65 | 258 | 0.0 | 0.0 | 0.00 | 0.00 | 0.00 | 31 | 965.1 |
| 20260504011436 | 65 | 258 | 0.0 | 0.0 | 0.00 | 0.00 | 0.00 | 31 | 964.8 |
| 20260504010932 | 66 | 258 | 0.0 | 0.0 | 0.00 | 0.00 | 0.00 | 29 | 965.1 |
| 20260504010428 | 66 | 258 | 0.0 | 0.0 | 0.00 | 0.00 | 0.00 | 30 | 964.8 |
| 20260504005924 | 67 | 258 | 1.7 | 1.7 | 0.00 | 0.00 | 0.00 | 28 | 965.1 |
| 20260504005421 | 67 | 250 | 0.0 | 0.0 | 0.00 | 0.00 | 0.00 | 28 | 964.8 |
| 20260504004919 | 68 | 312 | 0.0 | 0.0 | 0.00 | 0.00 | 0.00 | 27 | 964.8 |
| 20260504004416 | 68 | 289 | 0.0 | 0.0 | 0.00 | 0.00 | 0.00 | 28 | 964.8 |
| 20260504003913 | 68 | 250 | 1.7 | 1.7 | 0.00 | 0.00 | 0.00 | 27 | 965.1 |
| 20260504003409 | 68 | 312 | 1.7 | 1.7 | 0.00 | 0.00 | 0.00 | 27 | 965.1 |
| 20260504002906 | 69 | 264 | 3.5 | 3.5 | 0.00 | 0.00 | 0.00 | 27 | 965.1 |
| 20260504002403 | 69 | 296 | 3.5 | 3.5 | 0.00 | 0.00 | 0.00 | 26 | 965.5 |
| 20260504001900 | 70 | 300 | 4.3 | 4.3 | 0.00 | 0.00 | 0.00 | 25 | 965.1 |
| 20260504001358 | 69 | 258 | 4.3 | 5.2 | 0.00 | 0.00 | 0.00 | 25 | 965.5 |
| 20260504000854 | 69 | 246 | 6.1 | 7.0 | 0.00 | 0.00 | 0.00 | 24 | 965.1 |
| 20260504000353 | 70 | 298 | 3.5 | 3.5 | 0.00 | 0.00 | 0.00 | 26 | 965.1 |
| 20260503235849 | 70 | 312 | 1.7 | 1.7 | 0.00 | 0.00 | 0.00 | 26 | 965.1 |
| 20260503235347 | 70 | 12 | 7.0 | 7.0 | 0.00 | 0.00 | 0.00 | 26 | 965.5 |
| 20260503234844 | 70 | 246 | 1.7 | 1.7 | 0.00 | 0.00 | 0.00 | 25 | 965.5 |
| 20260503234341 | 70 | 288 | 3.5 | 4.3 | 0.00 | 0.00 | 0.00 | 25 | 965.5 |
| 20260503233839 | 71 | 331 | 1.7 | 1.7 | 0.00 | 0.00 | 0.00 | 25 | 965.5 |
| 20260503233335 | 71 | 270 | 5.2 | 6.1 | 0.00 | 0.00 | 0.00 | 25 | 965.5 |
| 20260503232831 | 71 | 310 | 3.5 | 3.5 | 0.00 | 0.00 | 0.00 | 24 | 965.5 |
| 20260503232329 | 72 | 139 | 5.2 | 5.2 | 0.00 | 0.00 | 0.00 | 24 | 965.8 |
| 20260503231827 | 72 | 258 | 1.7 | 1.7 | 0.00 | 0.00 | 0.00 | 23 | 965.5 |
| 20260503231323 | 71 | 25 | 4.3 | 4.3 | 0.00 | 0.00 | 0.00 | 25 | 965.8 |
| 20260503230819 | 71 | 322 | 7.0 | 7.8 | 0.00 | 0.00 | 0.00 | 25 | 965.8 |
| 20260503230317 | 71 | 284 | 4.3 | 4.3 | 0.00 | 0.00 | 0.00 | 25 | 965.5 |
| 20260503225814 | 72 | 263 | 5.2 | 6.1 | 0.00 | 0.00 | 0.00 | 26 | 965.5 |
| 20260503225309 | 72 | 288 | 4.3 | 4.3 | 0.00 | 0.00 | 0.00 | 25 | 965.8 |
| 20260503224806 | 71 | 262 | 4.3 | 4.3 | 0.00 | 0.00 | 0.00 | 23 | 965.8 |
| 20260503224304 | 72 | 325 | 5.2 | 5.2 | 0.00 | 0.00 | 0.00 | 25 | 965.8 |
| 20260503223801 | 71 | 255 | 3.5 | 3.5 | 0.00 | 0.00 | 0.00 | 25 | 965.8 |
| 20260503223259 | 72 | 234 | 3.5 | 3.5 | 0.00 | 0.00 | 0.00 | 25 | 965.8 |
| 20260503222755 | 71 | 290 | 3.5 | 3.5 | 0.00 | 0.00 | 0.00 | 25 | 965.8 |
| 20260503222253 | 71 | 354 | 3.5 | 4.3 | 0.00 | 0.00 | 0.00 | 25 | 965.8 |
| 20260503221751 | 71 | 305 | 5.2 | 5.2 | 0.00 | 0.00 | 0.00 | 24 | 965.8 |
| 20260503221249 | 72 | 273 | 3.5 | 4.3 | 0.00 | 0.00 | 0.00 | 25 | 965.8 |
| 20260503220745 | 71 | 272 | 4.3 | 4.3 | 0.00 | 0.00 | 0.00 | 24 | 965.8 |
| 20260503220242 | 70 | 263 | 3.5 | 3.5 | 0.00 | 0.00 | 0.00 | 27 | 965.8 |
| 20260503215739 | 71 | 294 | 5.2 | 5.2 | 0.00 | 0.00 | 0.00 | 26 | 965.8 |
| 20260503215236 | 72 | 271 | 5.2 | 5.2 | 0.00 | 0.00 | 0.00 | 25 | 965.8 |
| 20260503214734 | 71 | 258 | 4.3 | 4.3 | 0.00 | 0.00 | 0.00 | 25 | 965.8 |
| 20260503214230 | 71 | 60 | 5.2 | 5.2 | 0.00 | 0.00 | 0.00 | 25 | 965.8 |
| 20260503213729 | 71 | 14 | 12.2 | 13.9 | 0.00 | 0.00 | 0.00 | 24 | 965.8 |
| 20260503213225 | 71 | 288 | 5.2 | 5.2 | 0.00 | 0.00 | 0.00 | 25 | 965.8 |
| 20260503212722 | 71 | 275 | 3.5 | 3.5 | 0.00 | 0.00 | 0.00 | 25 | 966.1 |
| 20260503212220 | 71 | 289 | 5.2 | 6.1 | 0.00 | 0.00 | 0.00 | 26 | 965.8 |
| 20260503211717 | 71 | 285 | 3.5 | 3.5 | 0.00 | 0.00 | 0.00 | 26 | 966.1 |
| 20260503211213 | 71 | 245 | 5.2 | 5.2 | 0.00 | 0.00 | 0.00 | 27 | 966.1 |
| 20260503210709 | 70 | 292 | 7.0 | 7.8 | 0.00 | 0.00 | 0.00 | 28 | 966.5 |
| 20260503210207 | 71 | 30 | 7.8 | 9.6 | 0.00 | 0.00 | 0.00 | 28 | 966.1 |
| 20260503205701 | 71 | 252 | 5.2 | 5.2 | 0.00 | 0.00 | 0.00 | 28 | 966.1 |
| 20260503205158 | 70 | 326 | 10.4 | 11.3 | 0.00 | 0.00 | 0.00 | 28 | 966.1 |
| 20260503204654 | 71 | 6 | 16.5 | 18.2 | 0.00 | 0.00 | 0.00 | 26 | 966.5 |
| 20260503204152 | 71 | 6 | 6.1 | 6.1 | 0.00 | 0.00 | 0.00 | 27 | 966.5 |
| 20260503203649 | 71 | 348 | 10.4 | 11.3 | 0.00 | 0.00 | 0.00 | 27 | 966.1 |
| 20260503203147 | 70 | 6 | 7.8 | 7.8 | 0.00 | 0.00 | 0.00 | 28 | 966.5 |
| 20260503202644 | 71 | 330 | 3.5 | 3.5 | 0.00 | 0.00 | 0.00 | 28 | 966.5 |
| 20260503202142 | 70 | 276 | 6.1 | 6.1 | 0.00 | 0.00 | 0.00 | 28 | 966.5 |
| 20260503201640 | 70 | 271 | 5.2 | 5.2 | 0.00 | 0.00 | 0.00 | 27 | 966.5 |
| 20260503201137 | 70 | 313 | 6.1 | 7.0 | 0.00 | 0.00 | 0.00 | 27 | 966.8 |
| 20260503200633 | 70 | 321 | 13.0 | 14.8 | 0.00 | 0.00 | 0.00 | 27 | 966.8 |
| 20260503200129 | 70 | 18 | 10.4 | 12.2 | 0.00 | 0.00 | 0.00 | 27 | 966.5 |
| 20260503195621 | 70 | 2 | 6.1 | 6.1 | 0.00 | 0.00 | 0.00 | 27 | 966.5 |
| 20260503195117 | 70 | 270 | 7.8 | 7.8 | 0.00 | 0.00 | 0.00 | 28 | 966.5 |
| 20260503194615 | 69 | 341 | 13.0 | 15.6 | 0.00 | 0.00 | 0.00 | 29 | 966.5 |
| 20260503194115 | 70 | 294 | 7.8 | 9.6 | 0.00 | 0.00 | 0.00 | 30 | 966.5 |
| 20260503193613 | 70 | 36 | 7.0 | 7.8 | 0.00 | 0.00 | 0.00 | 29 | 966.5 |
| 20260503193108 | 69 | 336 | 7.8 | 9.6 | 0.00 | 0.00 | 0.00 | 29 | 966.5 |
| 20260503192604 | 69 | 312 | 11.3 | 11.3 | 0.00 | 0.00 | 0.00 | 29 | 966.5 |
| 20260503192100 | 69 | 251 | 3.5 | 3.5 | 0.00 | 0.00 | 0.00 | 30 | 966.8 |
| 20260503191557 | 69 | 301 | 12.2 | 13.9 | 0.00 | 0.00 | 0.00 | 30 | 966.8 |
| 20260503191053 | 69 | 344 | 7.8 | 7.8 | 0.00 | 0.00 | 0.00 | 30 | 966.8 |
| 20260503190550 | 69 | 288 | 2.6 | 2.6 | 0.00 | 0.00 | 0.00 | 30 | 966.5 |
| 20260503190048 | 70 | 312 | 5.2 | 6.1 | 0.00 | 0.00 | 0.00 | 31 | 966.5 |
| 20260503185544 | 69 | 9 | 7.8 | 9.6 | 0.00 | 0.00 | 0.00 | 31 | 966.8 |
| 20260503185038 | 69 | 270 | 5.2 | 6.1 | 0.00 | 0.00 | 0.00 | 35 | 966.8 |
| 20260503184534 | 69 | 341 | 7.8 | 7.8 | 0.00 | 0.00 | 0.00 | 32 | 966.8 |
| 20260503184031 | 69 | 334 | 4.3 | 4.3 | 0.00 | 0.00 | 0.00 | 33 | 966.8 |
| 20260503183528 | 69 | 295 | 4.3 | 5.2 | 0.00 | 0.00 | 0.00 | 31 | 966.8 |
| 20260503183025 | 69 | 9 | 7.8 | 7.8 | 0.00 | 0.00 | 0.00 | 31 | 966.8 |
| 20260503182523 | 69 | 336 | 5.2 | 6.1 | 0.00 | 0.00 | 0.00 | 31 | 966.8 |
| 20260503182021 | 68 | 6 | 7.8 | 7.8 | 0.00 | 0.00 | 0.00 | 32 | 966.8 |
| 20260503181517 | 68 | 300 | 4.3 | 5.2 | 0.00 | 0.00 | 0.00 | 33 | 966.8 |
| 20260503181013 | 68 | 348 | 7.8 | 7.8 | 0.00 | 0.00 | 0.00 | 31 | 967.1 |
| 20260503180511 | 69 | 281 | 13.0 | 15.6 | 0.00 | 0.00 | 0.00 | 31 | 967.1 |
| 20260503180009 | 68 | 324 | 9.6 | 10.4 | 0.00 | 0.00 | 0.00 | 30 | 967.1 |
| 20260503175506 | 68 | 322 | 10.4 | 13.0 | 0.00 | 0.00 | 0.00 | 34 | 967.5 |
| 20260503175002 | 67 | 312 | 11.3 | 13.0 | 0.00 | 0.00 | 0.00 | 31 | 967.1 |
| 20260503174501 | 67 | 346 | 10.4 | 11.3 | 0.00 | 0.00 | 0.00 | 31 | 967.1 |
| 20260503173956 | 67 | 336 | 7.8 | 7.8 | 0.00 | 0.00 | 0.00 | 33 | 967.1 |
| 20260503173452 | 67 | 48 | 7.8 | 7.8 | 0.00 | 0.00 | 0.00 | 33 | 967.5 |
| 20260503172948 | 67 | 324 | 7.8 | 7.8 | 0.00 | 0.00 | 0.00 | 33 | 967.1 |
| 20260503172446 | 66 | 330 | 5.2 | 5.2 | 0.00 | 0.00 | 0.00 | 35 | 967.5 |
| 20260503171942 | 67 | 338 | 7.0 | 7.8 | 0.00 | 0.00 | 0.00 | 34 | 967.1 |
| 20260503171438 | 67 | 306 | 14.8 | 16.5 | 0.00 | 0.00 | 0.00 | 34 | 967.5 |
| 20260503170936 | 66 | 280 | 7.8 | 7.8 | 0.00 | 0.00 | 0.00 | 33 | 967.5 |
| 20260503170432 | 66 | 318 | 11.3 | 13.0 | 0.00 | 0.00 | 0.00 | 34 | 967.5 |
| 20260503150825 | 61 | 329 | 5.2 | 5.2 | 0.00 | 0.00 | 0.00 | 45 | 966.8 |
| 20260503150321 | 61 | 18 | 5.2 | 6.1 | 0.00 | 0.00 | 0.00 | 45 | 966.8 |
| 20260503140245 | 56 | 312 | 9.6 | 10.4 | 0.00 | 0.00 | 0.00 | 52 | 966.5 |
| 20260503131215 | 54 | 318 | 4.3 | 5.2 | 0.00 | 0.00 | 0.00 | 55 | 966.1 |
| 20260503130712 | 54 | 300 | 6.1 | 6.1 | 0.00 | 0.00 | 0.00 | 54 | 966.1 |
| 20260503130209 | 53 | 291 | 4.3 | 4.3 | 0.00 | 0.00 | 0.00 | 54 | 966.1 |
| 20260503120135 | 49 | 172 | 1.7 | 1.7 | 0.00 | 0.00 | 0.00 | 55 | 965.5 |
| 20260503110603 | 49 | 174 | 1.7 | 1.7 | 0.00 | 0.00 | 0.00 | 56 | 965.5 |